Home   Weather   Cúcuta   Past weeks

Flag for Colombia Past Weather in Cúcuta, Colombia — Yesterday and Last 2 Weeks

Now
86 °F

Scattered clouds.


Feels Like: 92 °F
Forecast: 70 / 95 °F
Wind: 9 mph from Northeast

Location: Cucuta / Camilo Daza

Current Time: Dec 5, 2016 at 11:57:03 am

Latest Report: Dec 5, 2016 at 11:00 am


Visibility: N/A

Pressure: 29.93 "Hg

Humidity: 62%

Dew Point: 72 °F

Location of CúcutaLocation

Past Weather in Cúcuta — Graph

°F

Cúcuta Temperature Yesterday

Maximum temperature yesterday: 86 °F (at 11:00 am)
Minimum temperature yesterday: 75 °F (at 10:00 pm)
Average temperature yesterday: 81 °F

High & Low Weather Summary for the Past Weeks

 TemperatureHumidityPressure
High91 °F (Nov 27, 2:00 pm)100% (Nov 26, 8:00 pm)29.98 "Hg (Nov 26, 8:00 pm)
Low73 °F (Nov 22, 5:00 am)41% (Nov 27, 2:00 pm)29.70 "Hg (Nov 27, 3:00 pm)
Average81 °F75%29.85 "Hg
* Reported Nov 20 10:00 am — Dec 5 10:00 am, Cúcuta, Weather by CustomWeather, © 2016

Note: Actual official high and low records may vary slightly from our data, if they occured in-between our weather recording intervals... More about our weather records

Advertising

Cúcuta Weather History for the Previous 24 Hours

Scroll right to see more
 ConditionsComfort  
Time TempWeatherWind HumidityBarometerVisibility
10:00 am
Mon, Dec 5
84 °FScattered clouds.7 mph62%29.96 "HgN/A
9:00 am81 °FScattered clouds.2 mph74%29.98 "HgN/A
8:00 am77 °FScattered clouds.5 mph83%29.98 "HgN/A
7:00 am73 °FScattered clouds.5 mph89%29.95 "HgN/A
6:00 am73 °FScattered clouds.5 mph89%29.94 "HgN/A
5:00 am73 °FPassing clouds.No wind89%29.90 "Hg5 mi
12:00 am77 °FPassing clouds.No wind83%29.93 "HgN/A
11:00 pm
Sun, Dec 4
77 °FPassing clouds.No wind83%29.94 "HgN/A
10:00 pm75 °FPartly cloudy.2 mph89%29.94 "HgN/A
9:00 pm77 °FPartly cloudy.5 mph89%29.92 "HgN/A
8:00 pm77 °FPassing clouds.2 mph89%29.90 "HgN/A
7:00 pm79 °FThunderstorms. Passing clouds.7 mph84%29.88 "HgN/A
6:00 pm79 °FFog.12 mph89%29.85 "Hg4 mi
5:18 pm84 °FRain. Scattered clouds.7 mph70%29.83 "HgN/A
5:00 pm84 °FScattered clouds.7 mph70%29.83 "HgN/A
4:00 pm86 °FScattered clouds.5 mph66%29.82 "HgN/A
3:00 pm86 °FScattered clouds.7 mph66%29.82 "HgN/A
2:00 pm84 °FScattered clouds.7 mph66%29.83 "HgN/A
1:00 pm86 °FScattered clouds.12 mph59%29.86 "HgN/A
12:00 pm86 °FScattered clouds.14 mph59%29.88 "HgN/A
11:00 am86 °FScattered clouds.10 mph59%29.90 "HgN/A
Weather by CustomWeather, © 2016

See weather overviewHow to use our weather pages